Regional Weather Roundup
Issued by NWS

Home | Current Version | Previous Version | Graphics & Text | Print | Product List | Glossary On
Versions: 1 2 3 4 5 6 7 8 9 10 11 12 13 14 15 16 17 18 19 20 21 22 23 24 25 26 27 28 29 30 31 32 33 34 35 36 37 38 39 40 41 42 43 44 45 46 47 48 49 50
000
ASUS43 KDMX 050806
RWRIA

WEATHER ROUNDUP FOR IOWA
NATIONAL WEATHER SERVICE DES MOINES IA
200 AM CST MON DEC 05 2016

NOTE: "FAIR" INDICATES FEW OR NO CLOUDS BELOW 12,000 FEET WITH NO
SIGNIFICANT WEATHER AND/OR OBSTRUCTIONS TO VISIBILITY.

* - THESE STATIONS ARE NOT NWS STATIONS...THUS NOT UNDER NWS
QUALITY CONTROL.  THEY ALSO DO NOT REPORT WEATHER SUCH
AS PRECIPITATION OR FOG.

IAZ001>003-012>014-020>022-031>034-043>046-050900-
   NORTHWEST IOWA

CITY           SKY/WX    TMP DP  RH WIND       PRES   REMARKS
CARROLL *      CLEAR     34  32  93 S13       29.84S WCI  25
CHEROKEE *     CLEAR     30  30 100 S6        29.80F WCI  24
DENISON *      CLEAR     32  30  93 S5        29.82S WCI  27
LE MARS *      CLEAR     32  30  93 S9        29.79S WCI  24
ORANGE CITY *  CLOUDY    30  30 100 CALM      29.76F
SHELDON *      CLOUDY    32  32 100 SE6       29.75F WCI  26
SIOUX CITY     CLEAR     31  29  92 SE10      29.79F WCI  22
SPENCER        PTCLDY    30  29  96 S10       29.80F WCI  21
STORM LAKE *   CLEAR     28  27  93 S7        29.81S WCI  21
$$

IAZ055>058-069>071-079>083-090>094-050900-
   SOUTHWEST IOWA

CITY           SKY/WX    TMP DP  RH WIND       PRES   REMARKS
ATLANTIC *     CLOUDY    32  32 100 S7        29.87S WCI  26
AUDUBON *      CLEAR     28  27  93 CALM      29.86S FOG
CLARINDA *       N/A     32  32 100 S6        29.91F WCI  26
COUNCIL BLFS * CLOUDY    34  32  93 S10       29.84F WCI  26
CRESTON *      FOG       28  28 100 S6        29.91S VSB 1/4 WCI  22
HARLAN  *      CLEAR     30  30 100 CALM      29.89S FOG
LAMONI         FOG       30  29  96 S8        29.92F VSB 1/2 WCI  22
RED OAK *      CLOUDY    32  32 100 S6        29.89S WCI  26
SHENANDOAH *   CLOUDY    34  32  93 CALM      29.89F
$$

IAZ047>049-059>061-072>074-084-050900-
   CENTRAL IOWA

CITY           SKY/WX    TMP DP  RH WIND       PRES   REMARKS
AMES           CLEAR     27  27 100 SE5       29.89R FOG     WCI  22
ANKENY *       CLEAR     30 N/A N/A S5        29.92R FOG     WCI  25
BOONE *        CLEAR     32  32 100 S8        29.86S WCI  25
CHARITON *     FOG       34  32  93 S9        29.92S VSB 1/4 WCI  26
DES MOINES     CLEAR     31  29  92 S8        29.91R WCI  23
GRINNELL*      FOG       31  31  99 S10       29.92R VSB 1/4 WCI  23
KNOXVILLE *    FOG       34  32  93 S12       29.90F VSB 1/2 WCI  25
MARSHALLTOWN   CLEAR     30  30 100 S8        29.89S FOG     WCI  22
NEWTON *       CLEAR     30  30 100 S5        29.91R FOG     WCI  25
PELLA *        CLOUDY    33  32  96 S8        29.94R FOG     WCI  26
PERRY *          N/A     31  31 100 S7        29.88R WCI  24
$$

IAZ004>006-015-016-023>025-035-036-050900-
   NORTH CENTRAL IOWA

CITY           SKY/WX    TMP DP  RH WIND       PRES   REMARKS
ALGONA *       CLEAR     32  30  93 S10       29.82S WCI  24
CLARION *      CLEAR     30  30 100 S9        29.85S FOG     WCI  22
ESTHERVILLE    CLEAR     28  28 100 S6        29.80S WCI  22
FORT DODGE *   MOCLDY    30  27  86 S3        29.86R
MASON CITY     CLEAR     30  29  96 SW6       29.86S WCI  24
FOREST CITY *    N/A     30  30 100 S6        29.84S FOG     WCI  24
WEBSTER CITY * CLEAR     30  30 100 S8        29.84S WCI  23
IOWA FALLS *     N/A     30  28  94 S3        29.88S
$$

IAZ007>011-017>019-026>030-037>042-050>054-066-050900-
   NORTHEAST IOWA

CITY           SKY/WX    TMP DP  RH WIND       PRES   REMARKS
CEDAR RAPIDS   CLOUDY    33  33 100 S8        29.93R FOG     WCI  26
CHARLES CITY * CLOUDY    28  28 100 S5        29.87S FOG     WCI  23
CLINTON *      CLOUDY    33  32  96 W9        29.96S WCI  25
DECORAH *      CLOUDY    32  32 100 SW6       29.86S FOG     WCI  26
DUBUQUE        CLOUDY    33  32  96 SW12      29.91S FOG     WCI  24
MONTICELLO *   CLOUDY    36  34  93 W8        29.92S FOG     WCI  29
OELWEIN *      FOG       32  32 100 SW7       29.89S VSB<1/4 WCI  26
WATERLOO       CLEAR     31  29  92 S3        29.90R FOG
$$

IAZ064-065-067-068-078-050900-
   EAST CENTRAL IOWA

CITY           SKY/WX    TMP DP  RH WIND       PRES   REMARKS
DAVENPORT      CLOUDY    33  31  92 SW9       29.97R WCI  25
IOWA CITY      CLOUDY    35  33  92 S9        29.97R FOG     WCI  28
MUSCATINE *    CLOUDY    36  32  87 S7        29.99R WCI  30
QUAD CITIES    CLOUDY    35  31  85 SW9       29.98R WCI  28
$$

IAZ062-063-075>077-085>089-095>099-050900-
   SOUTHEAST IOWA

CITY           SKY/WX    TMP DP  RH WIND       PRES   REMARKS
BURLINGTON     CLOUDY    33  33 100 S3        29.99R
FAIRFIELD *    FOG       34  32  93 S6        29.96S VSB 1   WCI  29
FORT MADISON * CLOUDY    34  34 100 CALM      30.00R FOG
KEOKUK *       CLOUDY    34  34 100 SW5       29.99R WCI  30
OSKALOOSA *    FOG       33  33  99 SW12      29.95R VSB 3/4 WCI  24
CENTERVILLE *  FOG       32  32 100 S9        29.96S VSB 1   WCI  24
OTTUMWA        FOG       34  32  92 SW9       29.94S VSB 1   WCI  27
WASHINGTON *   CLOUDY    34  32  93 SW8       29.98R FOG     WCI  27
$$

ABBREVIATIONS USED IN REMARKS
   TC - TEMPERATURES IN CELSIUS
  WCI - WIND CHILL INDEX
   HX - HEAT INDEX
  VSB - VISIBILITY
$$





USA.gov is the U.S. government's official web portal to all federal, state and local government web resources and services.